Regional Weather Roundup
Issued by NWS

Home | Current Version | Previous Version | Text Only | Print | Product List | Glossary On
Versions: 1 2 3 4 5 6 7 8 9 10 11 12 13 14 15 16 17 18 19 20 21 22 23 24 25 26 27 28 29 30 31 32 33 34 35 36 37 38 39 40 41 42 43 44 45 46 47 48 49 50
000
ASUS45 KBOU 030907
RWRCO

WEATHER ROUNDUP FOR COLORADO
NATIONAL WEATHER SERVICE DENVER/BOULDER CO
300 AM MDT WED JUN 03 2015

NOTE: "FAIR" INDICATES FEW OR NO CLOUDS BELOW 12000 FEET WITH NO
SIGNIFICANT WEATHER AND/OR OBSTRUCTIONS TO VISIBILITY.

COZ001>005-013-030-031-031000-
...NORTHWEST COLORADO...

CITY           SKY/WX    TMP DP  RH WIND       PRES   REMARKS
CRAIG          CLEAR     39  35  86 CALM      30.05S
HAYDEN         CLEAR     45  32  61 SE5       30.06S
MEEKER         CLEAR     45  35  68 NE3       30.06S
MOUNT WERNER   NOT AVBL
STEAMBOAT SPGS CLEAR     44  33  66 E3        30.08S
WALDEN         CLEAR     36  32  87 E3        30.15S
$$

COZ006>008-011-031000-
...WEST CENTRAL VALLEYS...

CITY           SKY/WX    TMP DP  RH WIND       PRES   REMARKS
GRAND JUNCTION CLEAR     56  28  34 E10       29.91S
MONTROSE       CLEAR     57  28  33 SE9       30.01F
EAGLE          CLEAR     57  39  51 CALM      30.10S
RIFLE          CLEAR     47  36  65 SW5       30.00S
DELTA          CLEAR     56  29  35 NE9       29.98S
NUCLA          CLEAR     55  27  33 E10       30.04F
$$

COZ017>023-064>068-031000-
...SOUTHWEST COLORADO...

CITY           SKY/WX    TMP DP  RH WIND       PRES   REMARKS
DURANGO        CLEAR     43  30  60 NE3       30.10S
CORTEZ         CLEAR     48  33  56 NW8       30.05R
PAGOSA SPRINGS CLEAR     46  26  47 CALM      30.17S
TELLURIDE      CLEAR     48  24  38 SE6       30.26S
WOLF CREEK PAS NOT AVBL
$$

COZ009-010-012-014-032>034-037-058>063-031000-
...CENTRAL COLORADO...

CITY           SKY/WX    TMP DP  RH WIND       PRES   REMARKS
ASPEN          CLEAR     47  26  44 SW9       30.14F
BUENA VISTA    PTCLDY    45  25  45 NW7       30.17S
COPPER MTN     CLEAR     45  10  24 SW10      30.41F
BERTHOUD PASS  FAIR      37  32  81 W33G41    30.41F
COTTONWOOD PAS NOT AVBL
GUNNISON       PTCLDY    39  27  60 CALM      30.20S
KREMMLING      CLEAR     41  32  70 CALM      30.15R
LEADVILLE      PTCLDY    35  18  49 CALM      30.27F
MONARCH PASS   CLEAR     43  16  33 W23       30.51S
SALIDA         PTCLDY    52  23  31 CALM      30.21S
SUNLIGHT       CLEAR     46  16  29 CALM      30.34F
WILKERSON PASS CLEAR     46  10  23 W9G17     30.38S
$$

COZ069>075-031000-
...SAN LUIS VALLEY/SANGRE DE CRISTO MOUNTAINS...

CITY           SKY/WX    TMP DP  RH WIND       PRES   REMARKS
ALAMOSA        PTCLDY    42  29  59 S3        30.14F
LA VETA PASS   PTCLDY   N/A N/A N/A MISG      30.27S
SAGUACHE       CLEAR     50  25  37 NW15      30.17S
$$

COZ035-036-038>040-031000-
...NORTHERN COLORADO FRONT RANGE...

CITY           SKY/WX    TMP DP  RH WIND       PRES   REMARKS
DENVER INTL AP CLEAR     57  48  72 SW9       29.94R
DMNS CITY PARK   N/A     59  38  45 S5        29.94S
AURORA         PTCLDY    56  41  56 SW7       29.97R
FRONT RANGE AP CLEAR     57  50  77 SW5       29.95S
ERIE MUNI ARPT CLEAR     51  44  78 S6        29.93S
BOULDER MUN AP CLEAR     57  36  44 CALM      29.94R
CENTENNIAL     PTCLDY    58  34  40 SW7       29.98R
BROOMFIELD     CLEAR     59  32  36 W5        29.97S
FORT COLLINS   CLEAR     55  45  67 NW3       29.93S
LONGMONT       CLEAR     54  40  58 W5        29.94F
$$

COZ041-046-047-076>085-087-088-031000-
...PIKES PEAK/PALMER DIVIDE AND SOUTHERN FOOTHILLS...

CITY           SKY/WX    TMP DP  RH WIND       PRES   REMARKS
COLO. SPRINGS  CLEAR     62  27  26 N10       29.99R
A. F. ACADEMY  CLEAR     53  28  38 N9        30.01F
ELLICOTT       CLEAR    N/A N/A N/A N9        29.97R
FALCON         CLEAR     64  26  24 NW12      30.04S
FORT CARSON    CLEAR     58  31  35 NW10      29.95S
LIMON          CLEAR     57  48  72 NW10      29.91S
MONUMENT HILL  CLEAR     52  32  46 S6        30.06S
TRINIDAD       CLEAR     53  35  50 W14       29.95F
$$

COZ042>045-048>051-090-091-031000-
...NORTHEAST COLORADO...

CITY           SKY/WX    TMP DP  RH WIND       PRES   REMARKS
GREELEY ARPT   CLEAR     57  52  82 NW9       29.91R
AKRON          CLEAR     59  56  89 N12       29.84F
BURLINGTON     CLEAR     61  57  87 S9        29.79F
WRAY           PTCLDY    62  58  87 NW13G20   29.80R
STERLING       PTCLDY    63  59  88 N16       29.86R
HOLYOKE        NOT AVBL
FORT MORGAN    CLEAR     62  55  79 N16       29.87R
$$

COZ086-089-092>099-031000-
...SOUTHEAST COLORADO...

CITY           SKY/WX    TMP DP  RH WIND       PRES   REMARKS
PUEBLO         CLEAR     59  47  64 W10       29.87S
LA JUNTA       CLEAR     60  43  53 W14       29.81S
LAMAR          CLEAR     57  50  77 SW6       29.76S
SPRINGFIELD      N/A     57  51  80 SW7       29.85F
$$



USA.gov is the U.S. government's official web portal to all federal, state and local government web resources and services.